Theta_e
313 313 313 313 312 313 315 316 315 314 314 319 320 321 319 321 321 322 320 323 323 323 318 318 318 317 317 318 318 318 318 318 318 318 320 319 319 320 322 322 321 321 319 319
314 315 313 312 313 314 315 315 315 314 315 318 319 320 318 321 322 321 322 320 323 322 319 317 316 317 317 318 317 317 316 317 317 318 319 318 318 317 317 318 320 320 320 320
315 316 315 313 314 315 315 315 315 316 315 318 319 317 319 322 323 323 323 322 324 323 321 319 316 315 315 317 317 317 316 316 316 316 316 317 316 316 316 315 316 319 320 320
314 315 316 315 315 314 315 315 316 317 317 319 316 318 316 321 324 325 323 323 324 324 322 319 317 315 314 316 316 316 316 315 316 316 316 316 316 314 314 314 314 317 318 318
315 317 316 317 317 315 317 317 317 318 318 318 318 316 315 320 325 324 323 323 324 324 323 321 318 316 315 315 316 317 316 315 314 315 315 316 315 314 313 313 314 314 315 315
314 315 315 317 317 316 317 318 318 318 317 320 319 318 317 317 321 322 323 322 323 325 324 322 320 316 315 315 315 316 316 316 315 315 314 314 315 314 314 314 314 314 314 314
313 316 316 316 317 316 317 317 319 320 320 321 318 319 317 316 315 319 319 322 322 325 324 323 320 317 316 314 314 315 316 315 315 315 315 315 315 315 315 315 316 316 315 314
314 316 315 316 317 317 316 317 320 324 323 321 322 326 323 319 318 317 315 320 322 325 324 324 322 320 318 316 315 315 316 315 315 315 315 315 315 314 315 316 316 317 318 315
315 314 316 315 316 316 318 318 317 319 323 324 322 320 318 318 318 317 321 322 323 323 325 324 323 321 319 317 316 316 316 316 315 315 315 314 315 314 315 317 318 319 320 320
316 319 317 316 315 315 317 317 320 320 325 327 322 323 321 320 320 316 318 325 324 324 325 324 323 322 320 319 317 316 316 316 316 316 315 315 315 316 317 318 320 321 321 321
314 316 317 317 317 317 317 318 318 320 321 324 325 322 317 320 320 316 313 319 325 324 325 325 324 322 321 320 317 316 316 316 316 316 316 316 316 316 318 318 320 321 322 323
314 315 317 316 315 316 316 317 318 319 321 322 320 323 317 317 317 317 316 315 314 321 323 323 325 324 321 320 319 317 317 317 317 316 316 317 317 317 318 319 321 323 324 323
320 318 318 317 316 315 316 316 317 318 317 321 323 321 318 317 318 317 315 312 312 315 319 322 322 324 324 322 321 319 318 318 319 319 318 317 317 318 319 322 323 324 324 322
319 321 321 320 317 316 317 317 317 318 319 318 320 319 317 319 318 317 316 314 313 312 315 317 319 323 325 324 323 322 321 320 320 320 320 320 320 321 322 323 324 325 325 320
321 323 322 321 320 318 317 318 317 317 318 319 318 318 316 317 317 317 316 316 313 313 315 317 317 317 321 324 325 324 324 322 321 322 322 322 322 323 324 326 325 324 325 323
320 323 320 321 319 317 317 316 317 317 317 317 318 318 319 318 316 317 317 317 314 314 314 317 318 323 322 322 323 324 324 324 324 324 324 324 325 325 324 325 322 320 319 320
320 320 320 320 318 319 321 318 316 316 318 318 319 318 317 318 317 316 317 316 316 313 315 315 320 325 323 322 324 324 324 324 324 323 320 319 321 322 323 322 319 315 316 313
317 317 317 320 318 325 320 316 316 316 316 317 317 318 318 317 317 316 314 315 314 313 312 313 319 323 323 322 321 323 322 321 319 317 316 315 316 315 313 312 311 309 310 310
315 314 316 317 319 319 315 318 317 317 317 316 315 315 314 313 314 312 312 311 314 313 313 312 319 323 319 318 318 319 318 317 316 314 315 314 312 309 308 307 307 307 306 304
316 314 315 317 319 318 311 314 312 316 319 315 317 316 314 314 315 312 312 313 311 310 314 318 320 318 316 314 315 316 315 315 315 313 311 311 311 310 308 307 306 304 304 302
315 314 318 318 319 315 315 314 317 323 319 319 318 317 315 314 313 313 311 314 315 317 318 318 317 317 315 315 314 313 314 314 313 312 311 309 308 308 306 304 303 301 299 299
313 314 312 317 318 314 316 318 324 318 317 318 318 316 317 316 315 314 313 313 318 319 317 317 316 314 314 314 313 311 311 311 312 310 307 306 305 304 303 301 299 298 298 296
313 311 311 312 314 313 312 315 315 316 319 319 319 318 315 316 316 313 314 315 317 317 315 316 313 311 312 312 312 309 307 310 309 306 304 303 302 301 301 300 298 297 296 293
308 311 313 314 312 313 312 313 317 318 317 317 317 316 316 315 314 314 313 315 314 313 312 311 311 309 307 310 310 311 307 307 305 302 301 301 300 299 298 299 298 296 292 289
306 309 311 311 311 313 314 314 313 314 315 316 315 315 315 315 314 315 314 314 313 311 310 311 309 308 305 307 307 306 305 305 302 300 298 296 295 296 293 292 291 291 290 291
310 311 312 310 312 312 313 314 312 314 314 313 315 316 314 314 314 313 313 311 311 309 308 307 306 304 303 304 303 303 303 303 300 295 293 292 291 289 288 287 285 287 288 288
Wind_Speed
5 3 10 14 8 4 3 3 4 11 13 3 8 12 10 5 5 8 8 8 8 9 6 14 18 19 14 17 17 22 27 26 28 31 31 31 29 24 26 24 24 25 26 22
2 16 7 7 7 6 5 6 10 10 12 7 8 11 10 7 7 10 10 11 10 5 7 10 15 21 19 18 21 22 24 30 31 30 26 23 26 25 26 22 21 18 17 15
10 4 16 13 6 9 8 8 7 9 8 6 1 7 5 3 4 6 9 6 7 11 11 11 13 18 20 18 22 23 23 28 30 29 28 23 24 23 27 25 22 16 13 14
7 15 4 5 11 9 13 9 12 12 4 5 5 4 5 5 7 7 8 9 11 11 10 10 13 18 21 27 26 26 30 30 31 30 31 27 25 21 24 29 27 23 21 20
9 7 13 12 18 8 10 7 10 10 7 2 2 1 6 0 6 10 14 14 13 14 14 13 15 22 23 27 31 31 32 33 32 32 32 33 30 28 25 28 30 30 28 29
11 3 8 10 8 11 9 3 3 2 3 5 5 6 5 5 9 6 13 15 14 15 16 13 15 18 21 25 30 30 32 33 35 35 36 35 34 31 30 30 32 35 38 36
4 11 2 3 5 5 5 3 3 3 1 8 5 3 7 9 10 12 11 17 18 16 14 13 13 16 22 27 29 30 30 31 37 38 39 41 39 37 33 33 33 31 35 42
10 6 13 7 12 6 7 9 5 6 3 5 1 5 6 7 10 10 11 16 17 15 14 17 18 21 25 28 31 32 32 32 34 38 39 39 39 36 37 37 38 38 39 41
7 7 4 9 6 11 4 6 10 4 2 2 4 7 8 8 8 7 7 8 11 15 15 18 17 25 27 30 35 37 35 34 36 39 38 35 37 37 32 32 35 37 37 35
3 1 6 6 5 8 9 6 2 1 5 4 4 4 6 10 6 7 5 9 10 14 13 15 15 23 28 31 32 32 34 34 32 31 31 30 30 30 31 33 31 30 30 33
12 2 4 1 6 7 3 9 3 4 5 6 2 6 7 8 7 7 6 9 11 13 15 16 15 24 28 25 28 32 33 34 30 27 27 27 29 32 34 42 38 34 31 30
7 5 12 23 7 4 8 8 9 5 3 3 4 10 4 9 8 6 8 8 8 13 17 15 17 21 23 29 28 34 34 32 33 33 35 35 33 36 38 40 34 31 29 25
5 3 8 8 4 10 9 5 6 3 3 10 7 6 3 6 7 6 7 8 7 5 7 12 12 14 22 27 29 33 34 38 36 36 36 38 47 54 48 38 38 38 35 34
3 2 4 7 7 3 5 12 10 12 7 4 12 8 6 7 8 9 8 8 8 9 8 8 8 14 20 27 31 32 37 39 39 40 40 42 44 36 35 35 32 42 40 34
4 1 5 12 14 15 14 10 14 18 12 11 10 10 10 10 10 11 10 5 8 9 8 9 10 11 14 22 26 30 32 34 39 40 39 41 38 36 39 38 38 33 33 32
2 3 5 5 8 14 17 18 12 8 7 12 10 6 7 11 8 6 9 9 8 8 8 12 9 8 9 18 24 28 30 36 39 37 38 35 36 39 37 39 37 33 31 28
3 3 3 5 13 12 8 17 14 14 6 6 10 8 8 7 9 10 14 12 11 10 13 10 15 14 13 21 26 26 29 32 34 31 28 28 30 30 32 31 31 30 29 30
5 4 3 3 6 4 7 8 11 15 14 8 5 6 8 9 11 13 8 9 11 11 11 11 13 11 16 20 16 17 23 24 26 26 24 24 25 26 27 28 27 27 28 29
7 5 4 2 3 7 16 7 4 7 17 11 8 9 9 7 1 8 8 10 15 13 14 12 22 19 22 21 20 21 22 23 24 23 25 26 26 26 26 24 24 26 26 22
5 4 3 2 3 6 10 11 13 17 16 7 18 11 5 3 1 5 10 5 11 9 7 9 17 20 23 23 24 22 19 20 19 21 23 26 27 28 26 26 25 24 23 24
3 1 6 3 4 7 8 13 5 4 6 5 4 1 9 5 7 7 7 7 3 3 6 18 20 16 20 27 27 19 18 16 19 23 24 25 26 27 26 25 25 25 25 26
7 7 4 3 3 7 1 5 4 8 6 1 4 6 6 5 8 7 9 8 5 7 8 12 13 15 22 27 26 20 18 21 25 26 25 24 24 23 24 26 26 28 30 31
4 5 4 7 6 5 5 6 14 15 11 3 3 4 6 9 6 7 6 4 5 3 5 11 13 15 18 22 24 19 21 26 26 23 22 22 23 22 26 29 29 28 29 27
4 4 5 2 8 13 15 8 10 11 12 3 5 6 1 4 8 8 7 2 3 3 2 9 15 11 13 21 22 24 26 26 26 23 23 26 27 25 24 25 26 28 26 23
6 5 8 13 14 9 10 8 10 8 7 7 7 6 5 1 6 3 6 6 2 3 3 8 10 12 14 20 21 24 28 30 28 26 25 25 26 26 25 22 21 24 23 27
3 0 2 4 6 6 15 8 5 6 7 9 8 3 6 3 2 5 9 4 4 6 11 12 11 15 18 20 20 22 26 30 33 28 24 25 27 26 27 29 26 16 14 15
Wind_Direction
182 176 207 210 189 142 160 248 264 277 276 229 234 257 253 214 210 235 206 207 209 200 183 186 175 162 162 179 181 173 173 179 173 170 175 169 159 160 164 168 171 175 181 182
199 230 198 177 189 197 206 237 265 281 262 170 266 255 275 185 229 214 212 207 210 171 169 176 178 176 180 169 179 177 170 176 184 180 180 171 174 182 178 176 186 187 187 193
201 259 190 180 186 214 220 214 250 230 306 240 317 304 273 223 233 218 224 193 194 195 187 183 181 180 187 186 179 181 180 180 180 182 182 184 189 192 202 201 203 201 199 213
224 236 230 192 225 183 247 198 235 258 271 248 169 251 279 264 242 227 231 205 202 203 199 185 183 182 188 197 196 191 189 187 186 189 187 191 199 205 207 212 217 212 219 226
219 189 212 214 226 164 245 195 227 246 244 210 263 107 261 285 266 236 230 227 209 204 192 197 194 184 193 193 198 199 194 198 198 198 200 200 202 211 217 223 233 229 230 237
218 197 175 208 223 184 237 290 301 20 159 252 218 181 244 197 222 233 219 227 218 201 199 197 192 179 183 197 197 199 201 203 204 205 206 209 213 213 218 227 233 236 231 241
234 249 209 169 213 163 153 129 294 309 240 251 239 175 243 236 233 232 213 212 213 203 189 187 185 184 183 189 195 197 198 201 209 211 215 216 218 215 218 222 228 234 238 243
203 260 210 207 204 178 183 172 177 225 223 248 263 237 242 224 244 248 240 215 203 189 191 193 195 193 191 193 196 197 199 203 204 209 214 214 215 216 217 222 226 234 240 244
183 235 261 201 180 185 199 187 212 186 22 34 236 293 308 295 298 240 224 167 190 195 194 200 196 199 194 194 199 201 201 203 205 208 210 212 215 216 219 229 235 240 246 254
233 276 237 232 186 231 182 166 118 1 177 244 275 269 242 291 275 256 186 188 199 206 204 206 201 202 203 203 201 199 203 207 209 210 209 213 218 224 228 234 242 248 256 262
217 181 272 151 190 197 153 218 210 157 153 187 223 253 223 244 259 274 229 208 198 200 205 206 205 205 206 203 199 199 202 204 207 208 211 219 228 233 236 240 241 243 250 253
196 206 235 247 258 207 215 205 179 159 218 225 180 242 252 250 262 215 273 262 193 213 205 201 206 203 195 203 198 200 203 204 200 202 209 218 229 239 242 241 235 230 225 241
345 305 243 282 283 256 240 211 211 136 129 212 212 257 251 258 282 260 233 253 256 204 232 207 202 197 202 203 202 202 201 206 203 205 207 215 223 228 228 224 228 231 222 228
265 208 265 258 261 228 211 222 226 209 211 180 232 243 266 263 246 269 254 250 246 235 208 209 188 198 199 204 205 199 205 202 199 203 207 215 225 228 225 219 226 230 220 222
4 274 297 297 300 263 262 223 219 222 219 211 234 218 228 228 238 234 231 232 261 221 195 203 213 197 200 201 204 203 205 196 198 202 208 217 222 218 218 215 219 219 222 231
206 261 343 288 273 251 254 259 235 233 231 244 253 261 224 226 235 253 241 237 223 243 231 197 207 195 189 197 202 197 193 192 192 197 204 208 207 210 210 215 221 223 221 219
183 151 65 281 342 330 299 248 255 246 201 180 228 224 232 237 237 235 239 233 228 215 223 189 198 202 196 196 198 190 185 185 188 192 193 198 202 211 218 222 219 213 209 204
157 153 170 247 24 253 292 299 240 239 236 214 261 227 227 233 239 245 231 214 228 222 213 214 195 194 190 195 181 174 169 169 170 178 183 187 195 197 200 195 189 185 189 186
185 149 165 222 196 275 310 271 247 217 255 218 217 247 253 271 206 303 250 214 227 218 215 211 210 181 163 167 169 170 157 166 167 172 178 186 188 179 176 170 170 175 172 169
113 105 144 162 208 234 224 262 305 313 257 257 233 231 290 202 334 258 277 265 245 218 177 157 154 146 149 161 163 160 161 164 169 170 171 179 183 180 173 174 174 173 172 163
123 156 199 195 239 277 253 271 347 242 252 354 52 314 173 218 204 240 301 265 241 228 176 150 150 157 160 161 160 157 161 166 163 167 173 175 178 175 174 169 172 161 152 158
172 167 189 171 211 284 176 6 61 300 312 41 20 359 350 299 328 318 305 279 209 168 142 141 137 142 156 164 159 152 160 162 170 168 165 165 167 163 163 163 156 158 159 156
193 184 182 191 214 252 223 211 178 236 275 289 357 328 345 339 348 316 310 356 292 202 130 130 127 127 147 162 165 150 160 168 168 162 153 151 153 152 161 157 156 157 164 154
269 179 217 102 260 253 269 235 229 223 248 173 195 255 260 332 311 315 304 269 173 305 130 129 129 135 141 162 166 172 167 168 162 145 144 147 148 147 153 159 166 168 163 152
209 172 233 252 269 280 271 252 249 253 240 229 233 242 279 124 333 319 301 276 272 85 89 146 144 142 138 157 161 165 165 164 150 145 143 143 147 148 142 144 159 170 175 180
21 66 126 262 319 308 268 232 260 251 245 216 220 231 206 183 338 3 324 293 214 154 141 130 135 128 129 143 147 156 165 167 153 140 139 142 142 139 132 126 109 123 153 174